Weather Roundup
Issued by NWS

Home | Current Version | Previous Version | Graphics & Text | Print | Product List | Glossary Off
Versions: 1 2 3 4 5 6 7 8 9 10 11 12 13 14 15 16 17 18 19 20 21 22 23 24 25 26 27 28 29 30 31 32 33 34 35 36 37 38 39 40 41 42 43 44 45 46 47 48 49 50

573
NZUS93 KARX 232259
HRRWXR

CURRENT HOURLY OBSERVATIONS ACROSS
MUCH OF THE UPPER MISSISSIPPI VALLEY
NATIONAL WEATHER SERVICE LA CROSSE WI
600 PM CDT WED MAY 23 2018


...SOUTHEAST MINNESOTA...


CITY           SKY/WX    TMP DP  RH WIND       PRES   REMARKS
ROCHESTER      FAIR      78  65  63 SE10      30.10S
ROCHESTER/MAYO FAIR      79  62  55 S6        30.10S
WINONA         FAIR      79  63  57 S5        30.07S
AUSTIN         CLOUDY    79  66  65 CALM      30.08F
ALBERT LEA     FAIR      81  63  54 S10       30.06F
DODGE CENTER   FAIR      79  63  57 SE12      30.09F
PRESTON        FAIR      75  64  68 SE7       30.11F
OWATONNA       FAIR      82  66  57 SE12      30.07S
FARIBAULT      FAIR      84  63  48 CALM      30.06F
$$

...ELSEWHERE IN MINNESOTA...


CITY           SKY/WX    TMP DP  RH WIND       PRES   REMARKS
MINNEAPOLIS    PTSUNNY   82  60  47 SE7       30.06S
INTNL FALLS    FAIR      84  50  30 SW10      30.01F
DULUTH         FAIR      76  55  48 SE8       30.08S
RED WING       FAIR      81  55  41 SE5       30.06S
REDWOOD FALLS  MOSUNNY   79  69  71 SE10      30.00F
MANKATO        FAIR      82  67  60 SE13      30.04F
WORTHINGTON      N/A     88  59  37 S15G22    30.00S
FAIRMONT       CLOUDY    82  68  62 SE15      30.02F
$$

...SOUTHWEST WISCONSIN...


CITY           SKY/WX    TMP DP  RH WIND       PRES   REMARKS
LA CROSSE      FAIR      81  63  54 S9        30.09F
PRAIRIE DU CHI FAIR      80  59  48 SE6       30.10F
BOSCOBEL       FAIR      82  63  52 CALM      30.11F
LONE ROCK      NOT AVBL
PLATTEVILLE    FAIR      78  62  56 SE3       30.14S
FORT MC COY    FAIR      79  61  54 S6        30.12F
MAUSTON-NEW LI FAIR      78  63  60 S5        30.13S
VIROQUA        FAIR      79  63  56 SW5       30.14S
WIS DELLS      FAIR      77  59  53 CALM      30.14S
$$

...ELSEWHERE IN WISCONSIN...


CITY           SKY/WX    TMP DP  RH WIND       PRES   REMARKS
MILWAUKEE      PTSUNNY   72  53  51 SE12      30.16S
MADISON        PTSUNNY   78  60  53 SW3       30.13F
GREEN BAY      FAIR      78  58  49 S8        30.13S
EAU CLAIRE     NOT AVBL
BLACK RVR FLS  FAIR      83  56  40 S5        30.11S
MEDFORD        FAIR      76  58  54 S5        30.13F
WAUSAU         FAIR      77  58  51 SW8       30.11F
WIS RAPIDS     FAIR      78  60  53 S3        30.13F
MARSHFIELD     FAIR      77  61  57 S8        30.12F
RICE LAKE      FAIR      80  57  45 S7        30.11S
$$

...NORTHEAST IOWA...


CITY           SKY/WX    TMP DP  RH WIND       PRES   REMARKS
WATERLOO       FAIR      83  63  50 SE9       30.07S
DUBUQUE        FAIR      79  61  53 S7        30.13F
DECORAH        FAIR      77  66  69 SE6       30.10F
MASON CITY     MOSUNNY   82  68  62 SE12      30.08S
CHARLES CITY   NOT AVBL
OELWEIN        FAIR      82  64  54 SE13      30.10F
$$

...ELSEWHERE IN IOWA...


CITY           SKY/WX    TMP DP  RH WIND       PRES   REMARKS
DES MOINES     MOSUNNY   86  65  49 SE14      30.04S
IOWA CITY      FAIR      84  64  50 S8        30.09F
FORT DODGE     MOSUNNY   85  65  51 SE9       30.03S
MARSHALLTOWN   MOSUNNY   84  64  50 SE10      30.06S
CEDAR RAPIDS   FAIR      82  64  54 SE9       30.08F
$$

...NORTHERN ILLINOIS...


CITY           SKY/WX    TMP DP  RH WIND       PRES   REMARKS
CHICAGO-OHARE  FAIR      78  47  33 E9        30.14S
CHICAGO-MIDWAY PTSUNNY   75  46  35 E10       30.15S
MOLINE         FAIR      83  63  50 NE9       30.09F
ROCKFORD       PTSUNNY   78  57  48 S5        30.14F
PEORIA         FAIR      83  58  42 NE7       30.10F
$$

NOTE: "FAIR" INDICATES FEW OR NO CLOUDS BELOW 12,000 FEET WITH NO
SIGNIFICANT WEATHER AND/OR OBSTRUCTIONS TO VISIBILITY. WIND
SPEEDS ARE IN MILES-PER-HOUR.




USA.gov is the U.S. government's official web portal to all federal, state and local government web resources and services.